Sterling, CO

12:29 PM MST on December 05, 2016 (GMT -0700)
Sterling Municipal

Weather History for KSTK - May, 2014

Change the Weather History Date:

Wednesday, May 28, 2014

  Actual Average Record
Temperature  
Mean Temperature 72 °F -  
Max Temperature 93 °F 76 °F 93 °F (2014)
Min Temperature 51 °F 48 °F 37 °F (2016)
Cooling Degree Days 7    
Growing Degree Days 22 (Base 50)    
Moisture  
Dew Point 51 °F    
Average Humidity 52    
Maximum Humidity 100    
Minimum Humidity 20    
Precipitation  
Precipitation 0.00 in - - ()
Sea Level Pressure  
Sea Level Pressure 30.06 in    
Wind  
Wind Speed 6 mph (South)    
Max Wind Speed 14 mph    
Max Gust Speed 21 mph    
Visibility 10 miles    
Events      
Averages and records for this station are not official NWS values.
T = Trace of Precipitation, MM = Missing Value Source: NWS Daily Summary

Daily Weather History Graph

Daily Weather History Graph

Search for Another Location

Airport or City:

Trip Planner

Search our weather history database for the weather conditions in past years. The results will help you decide how hot, cold, wet, or windy it might be!

Date:

Astronomy

May. 28, 2014 Rise Set
Actual Time 5:26 AM MDT 8:14 PM MDT
Civil Twilight 4:54 AM MDT 8:47 PM MDT
Nautical Twilight 4:13 AM MDT 9:27 PM MDT
Astronomical Twilight 3:27 AM MDT 10:14 PM MDT
Moon 5:34 AM MDT (5/28) 8:15 PM MDT (5/28)
Length of Visible Light 15h 52m
Length of Day
14h 48m
Waning Crescent, 0% of the Moon is Illuminated
May 28
Waning Crescent
May 28
New
Jun 5
First Quarter
Jun 12
Full
Jun 19
Last Quarter

Hourly Weather History & Observations

Time (MDT) Temp. Heat Index Dew Point Humidity Pressure Visibility Wind Dir Wind Speed Gust Speed Precip Events Conditions
12:10 AM 60.8 °F - 53.6 °F 77% 30.11 in 10.0 mi NW 9.2 mph - N/A   Clear
12:30 AM 62.6 °F - 53.6 °F 72% 30.10 in 10.0 mi NNW 8.1 mph - N/A   Clear
12:50 AM 60.8 °F - 53.6 °F 77% 30.10 in 10.0 mi North 5.8 mph - N/A   Clear
1:10 AM 60.8 °F - 53.6 °F 77% 30.10 in 10.0 mi Calm Calm - N/A   Clear
1:30 AM 62.6 °F - 53.6 °F 72% 30.10 in 10.0 mi Calm Calm - N/A   Clear
1:50 AM 60.8 °F - 53.6 °F 77% 30.08 in 10.0 mi SSE 3.5 mph - N/A   Clear
2:10 AM 59.0 °F - 53.6 °F 82% 30.08 in 10.0 mi South 5.8 mph - N/A   Clear
2:30 AM 57.2 °F - 53.6 °F 88% 30.08 in 10.0 mi SW 8.1 mph - N/A   Clear
2:50 AM 57.2 °F - 53.6 °F 88% 30.08 in 10.0 mi WSW 3.5 mph - N/A   Clear
3:10 AM 55.4 °F - 51.8 °F 88% 30.08 in 10.0 mi WSW 4.6 mph - N/A   Clear
3:30 AM 57.2 °F - 53.6 °F 88% 30.08 in 10.0 mi WNW 4.6 mph - N/A   Clear
3:50 AM 55.4 °F - 51.8 °F 88% 30.08 in 10.0 mi Calm Calm - N/A   Clear
4:10 AM 59.0 °F - 51.8 °F 77% 30.08 in 10.0 mi Calm Calm - N/A   Clear
4:30 AM 53.6 °F - 51.8 °F 94% 30.09 in 10.0 mi SSE 4.6 mph - N/A   Clear
4:50 AM 55.4 °F - 51.8 °F 88% 30.09 in 10.0 mi Calm Calm - N/A   Clear
5:10 AM 51.8 °F - 50.0 °F 94% 30.09 in 10.0 mi WSW 5.8 mph - N/A   Clear
5:30 AM 51.8 °F - 51.8 °F 100% 30.08 in 10.0 mi West 3.5 mph - N/A   Clear
5:50 AM 53.6 °F - 51.8 °F 94% 30.09 in 10.0 mi Calm Calm - N/A   Clear
6:10 AM 53.6 °F - 51.8 °F 94% 30.10 in 10.0 mi Calm Calm - N/A   Clear
6:30 AM 55.4 °F - 53.6 °F 94% 30.10 in 10.0 mi SW 3.5 mph - N/A   Clear
7:10 AM 60.8 °F - 53.6 °F 77% 30.10 in 10.0 mi SSW 3.5 mph - N/A   Clear
7:50 AM 64.4 °F - 53.6 °F 68% 30.10 in 10.0 mi SW 8.1 mph - N/A   Clear
8:10 AM 66.2 °F - 55.4 °F 68% 30.10 in 10.0 mi SSW 6.9 mph - N/A   Clear
8:30 AM 68.0 °F - 55.4 °F 64% 30.10 in 10.0 mi SSW 5.8 mph - N/A   Clear
8:50 AM 69.8 °F - 55.4 °F 60% 30.10 in 10.0 mi SSW 6.9 mph - N/A   Clear
9:10 AM 71.6 °F - 55.4 °F 57% 30.10 in 10.0 mi SSW 6.9 mph - N/A   Clear
9:30 AM 75.2 °F - 55.4 °F 50% 30.10 in 10.0 mi SSW 6.9 mph - N/A   Clear
9:50 AM 77.0 °F - 55.4 °F 47% 30.10 in 10.0 mi SW 4.6 mph - N/A   Clear
10:10 AM 78.8 °F - 55.4 °F 44% 30.09 in 10.0 mi SSW 4.6 mph - N/A   Clear
10:50 AM 82.4 °F 81.4 °F 53.6 °F 37% 30.08 in 10.0 mi SSW 4.6 mph - N/A   Clear
11:10 AM 84.2 °F 82.8 °F 53.6 °F 35% 30.08 in 10.0 mi SSW 5.8 mph - N/A   Clear
11:30 AM 86.0 °F 84.2 °F 53.6 °F 33% 30.08 in 10.0 mi SW 5.8 mph - N/A   Clear
12:10 PM 89.6 °F - 50.0 °F 26% 30.07 in 10.0 mi South 8.1 mph - N/A   Clear
12:50 PM 89.6 °F - 46.4 °F 22% 30.06 in 10.0 mi SE 8.1 mph - N/A   Clear
1:10 PM 91.4 °F - 50.0 °F 24% 30.06 in 10.0 mi SE 4.6 mph - N/A   Clear
1:30 PM 91.4 °F - 46.4 °F 21% 30.05 in 10.0 mi WSW 4.6 mph - N/A   Clear
1:50 PM 91.4 °F - 46.4 °F 21% 30.04 in 10.0 mi SW 6.9 mph - N/A   Clear
2:10 PM 91.4 °F - 44.6 °F 20% 30.04 in 10.0 mi SSE 4.6 mph - N/A   Clear
2:30 PM 91.4 °F - 46.4 °F 21% 30.04 in - South 8.1 mph - N/A   Unknown
2:50 PM 91.4 °F - 44.6 °F 20% 30.03 in 10.0 mi SSW 3.5 mph - N/A   Clear
3:10 PM 91.4 °F - 44.6 °F 20% 30.03 in 10.0 mi Calm Calm - N/A   Clear
3:30 PM 93.2 °F - 46.4 °F 20% 30.02 in 10.0 mi SSW 4.6 mph 16.1 mph N/A   Scattered Clouds
4:10 PM 91.4 °F - 46.4 °F 21% 30.01 in 10.0 mi South 10.4 mph 20.7 mph N/A   Clear
4:30 PM 91.4 °F - 44.6 °F 20% 30.01 in 10.0 mi South 8.1 mph - N/A   Clear
5:10 PM 91.4 °F - 44.6 °F 20% 30.01 in 10.0 mi SE 9.2 mph - N/A   Scattered Clouds
5:30 PM 91.4 °F - 44.6 °F 20% 30.00 in 10.0 mi SE 9.2 mph - N/A   Clear
5:50 PM 91.4 °F - 44.6 °F 20% 29.99 in 10.0 mi SE 6.9 mph - N/A   Clear
6:10 PM 89.6 °F - 44.6 °F 21% 29.99 in 10.0 mi SE 9.2 mph - N/A   Clear
6:30 PM 89.6 °F - 46.4 °F 22% 29.99 in 10.0 mi SE 8.1 mph - N/A   Clear
6:50 PM 87.8 °F - 46.4 °F 24% 29.99 in 10.0 mi SE 6.9 mph - N/A   Clear
7:10 PM 86.0 °F - 48.2 °F 27% 30.00 in 10.0 mi SE 6.9 mph - N/A   Clear
7:30 PM 84.2 °F - 50.0 °F 30% 30.01 in 10.0 mi SE 6.9 mph - N/A   Clear
7:50 PM 80.6 °F - 50.0 °F 34% 30.01 in 10.0 mi SE 10.4 mph - N/A   Clear
8:10 PM 80.6 °F - 51.8 °F 37% 30.01 in 10.0 mi SSE 9.2 mph - N/A   Clear
8:30 PM 78.8 °F - 51.8 °F 39% 30.01 in 10.0 mi SSE 8.1 mph - N/A   Clear
9:10 PM 78.8 °F - 51.8 °F 39% 30.02 in 10.0 mi SSE 13.8 mph - N/A   Clear
9:50 PM 75.2 °F - 51.8 °F 44% 30.04 in 10.0 mi SSE 11.5 mph - N/A   Clear
10:10 PM 75.2 °F - 51.8 °F 44% 30.04 in 10.0 mi SSE 10.4 mph - N/A   Clear
10:30 PM 73.4 °F - 51.8 °F 47% 30.04 in 10.0 mi SSE 9.2 mph - N/A   Clear
10:50 PM 73.4 °F - 51.8 °F 47% 30.04 in 10.0 mi SSE 9.2 mph - N/A   Clear
11:10 PM 71.6 °F - 51.8 °F 50% 30.04 in 10.0 mi SSE 9.2 mph - N/A   Clear
11:30 PM 69.8 °F - 51.8 °F 53% 30.04 in 10.0 mi South 8.1 mph - N/A   Clear